Regional Weather Roundup
Issued by NWS

Home | Current Version | Previous Version | Text Only | Print | Product List | Glossary On
Versions: 1 2 3 4 5 6 7 8 9 10 11 12 13 14 15 16 17 18 19 20 21 22 23 24 25 26 27 28 29 30 31 32 33 34 35 36 37 38 39 40 41 42 43 44 45 46 47 48 49 50
718
ASUS45 KPSR 291610
RWRAZ

ARIZONA HOURLY REGIONAL WEATHER ROUNDUP
NATIONAL WEATHER SERVICE PHOENIX AZ
900 AM MST FRI JUL 29 2016

NOTE: FAIR INDICATES FEW OR NO CLOUDS BELOW 12,000 FEET WITH NO
SIGNIFICANT WEATHER AND/OR OBSTRUCTIONS TO VISIBILITY.

AZZ001>003-036-291700-
NORTHWEST ARIZONA

CITY           SKY/WX    TMP DP  RH WIND       PRES   REMARKS
BULLHEAD CITY  MOSUNNY   99  54  22 SW8       29.79S
KINGMAN        MOSUNNY   97  50  20 SW13      30.01S
$$

AZZ004>008-015-016-018-291700-
NORTH CENTRAL ARIZONA

CITY           SKY/WX    TMP DP  RH WIND       PRES   REMARKS
GRAND CANYON   MOSUNNY   85  43  22 VRB5      30.27F
WILLIAMS       PTSUNNY   81  43  26 NW5       30.36S
PRESCOTT       MOSUNNY   88  50  27 CALM      30.15S
FLAGSTAFF      SUNNY     77  45  32 SW13      30.30R
PAYSON         SUNNY     81  52  36 VRB5      30.19F
PAGE           MOSUNNY   90  41  18 N6        30.05R
$$

AZZ009>014-017-291700-
NORTHEAST ARIZONA

CITY           SKY/WX    TMP DP  RH WIND       PRES   REMARKS
WINSLOW        SUNNY     84  44  24 NE5       30.12S
WINDOW ROCK    SUNNY     79  46  31 S7        30.28F
SHOW LOW       SUNNY     79  45  29 S16G23    30.27S
$$

AZZ023-291700-
GREATER PHOENIX AREA

CITY           SKY/WX    TMP DP  RH WIND       PRES   REMARKS
PHOENIX        MOSUNNY   96  62  32 W14       29.84R
BUCKEYE        PTSUNNY   93  64  38 SW8       29.87F
GLENDALE       MOSUNNY   95  64  36 S14       29.86S
LUKE AFB       MOSUNNY   94  64  36 SW15      29.83F
DEER VALLEY    SUNNY     92  63  38 SW8       29.87S
SCOTTSDALE     SUNNY     93  62  35 SW7       29.89S
MESA-GATEWAY   MOSUNNY   93  64  38 SE5       29.88R
CHANDLER       MOSUNNY   95  64  36 VRB5      29.86S
$$

AZZ027-028-291700-
SOUTHWEST MARICOPA COUNTY AND PINAL COUNTY

CITY           SKY/WX    TMP DP  RH WIND       PRES   REMARKS
CASA GRANDE    SUNNY     95  61  31 SW10      29.90S
GILA BEND      MOSUNNY   96  61  30 SW9       29.83S
$$

AZZ503-504-507>509-291700-
SOUTHEAST ARIZONA

CITY           SKY/WX    TMP DP  RH WIND       PRES   REMARKS
TUCSON         MOSUNNY   88  66  48 N3        29.99S
DAVIS-MONTHAN  SUNNY     86  68  54 W2        29.98S
RYAN FIELD     SUNNY     88  68  51 SW3       29.98F
NOGALES        SUNNY     80  68  66 CALM      30.07F
SIERRA VISTA   SUNNY     83  59  44 CALM      30.13S
DOUGLAS        SUNNY     80  66  62 VRB3      30.09S
SAFFORD        PTSUNNY   92  53  26 SE7       29.99F
$$

AZZ020-021-025-026-031-291700-
SOUTHWEST ARIZONA

CITY           SKY/WX    TMP DP  RH WIND       PRES   REMARKS
YUMA           MOSUNNY   93  73  52 S18       29.78S HX 102
$$

CAZ031-033-041-043-047-048-061-291700-
SOUTHERN CALIFORNIA

CITY           SKY/WX    TMP DP  RH WIND       PRES   REMARKS
DOWNTOWN L.A.  SUNNY     78  63  59 CALM      29.83S
L.A. AIRPORT   MOSUNNY   75  65  70 W6        29.85S
SAN DIEGO      PTSUNNY   74  68  81 NW5       29.86S
BURBANK        SUNNY     79  59  50 CALM      29.86R
ONTARIO        SUNNY     82  55  39 S5        29.87S
RIVERSIDE      SUNNY     82  55  39 CALM      29.86S
PALM SPRINGS   SUNNY     91  72  53 E5        29.83F
EL CENTRO NAS  MOSUNNY   91  74  57 CALM      29.76S HX 100
IMPERIAL       MOSUNNY   93  77  59 CALM      29.74S HX 107
NEEDLES        MOSUNNY  104  59  22 E5        29.80R HX 104
$$

NVZ020-UTZ003-291700-
SOUTHERN NEVADA-UTAH

CITY           SKY/WX    TMP DP  RH WIND       PRES   REMARKS
LAS VEGAS      CLOUDY    99  46  16 CALM      29.85R
SALT LAKE CITY MOSUNNY   85  40  20 SE6       30.06S
$$

NMZ009-TXZ055-291700-
NEW MEXICO-WEST TEXAS

CITY           SKY/WX    TMP DP  RH WIND       PRES   REMARKS
ALBUQUERQUE    MOSUNNY   84  53  34 SW7       30.19F
EL PASO        MOSUNNY   85  57  38 NE3       30.10S
$$


........................KEY........................
SKY/WX - SKY CONDITION/WEATHER
TMP    - TEMPERATURE IN FAHRENHEIT
DP     - DEW POINT IN FAHRENHEIT
RH     - RELATIVE HUMIDITY IN PERCENT
WIND   - DIRECTION AND SPEED IN MILES PER HOUR (MPH)
VRB    - VARIABLE WIND DIRECTION
PRES   - MEAN SEA LEVEL PRESSURE IN INCHES OF MERCURY
         F - FALLING PRESSURE   R - RISING PRESSURE
         S - STEADY PRESSURE
VSB    - VISIBILITY IN MILES
HX     - HEAT INDEX IN FAHRENHEIT
WCI    - WIND CHILL INDEX IN FAHRENHEIT
TC     - TEMPERATURE IN CELSIUS WHICH IS ALSO KNOWN AS
         TEMPERATURE IN CENTIGRADE
AFB    - AIR FORCE BASE
         LUKE AFB IS LUKE AIR FORCE BASE
         DAVIS-MONTHAN IS DAVIS-MONTHAN AIR FORCE BASE
NAS    - NAVAL AIR STATION
         EL CENTRO NAS IS EL CENTRO NAVAL AIR STATION
N/A    - NOT AVAILABLE





USA.gov is the U.S. government's official web portal to all federal, state and local government web resources and services.